Flag Weather past 2 weeks in Rastatt, Baden-Württemberg, Germany

Now
36 °F

Partly sunny.


Feels Like: 36 °F
Forecast: 34 / 40 °F
Wind: 1 mph from North

Location: Karlsruhe - Baden Wurttemberg

Current Time: Nov 29, 2014 at 10:02:12 AM

Latest Report: Nov 29, 2014 at 9:20 AM


Visibility: 5 mi

Pressure: 29.95 "Hg

Humidity: 93%

Dew point: 34 °F

Location of RastattLocation

Historic Weather in Rastatt — Graph

°F

Rastatt temperature yesterday

Maximum temperature yesterday: 43 °F (at 10:50 AM)
Minimum temperature yesterday: 36 °F (at 11:20 PM)
Average temperature yesterday: 40 °F

Past Weeks' High & Low Weather Summary

 TemperatureHumidityPressure
High55 °F (Nov 16, 1:20 PM)100% (Nov 14, 9:20 AM)30.30 "Hg (Nov 14, 9:20 AM)
Low30 °F (Nov 29, 5:20 AM)67% (Nov 16, 3:20 PM)29.56 "Hg (Nov 15, 10:50 PM)
Average45 °F89%29.95 "Hg
* Reported Nov 14 8:20 AM — Nov 29 8:50 AM, Rastatt, Weather by CustomWeather, © 2014

Note: Actual official high and low records may vary slightly from our data, if they occured in-between our weather recording intervals... More about our weather records

Advertising

Rastatt weather history for previous 24 hours

 ConditionsComfort  
Time TempWeatherWind HumidityBarometerVisibility
8:50 AM
Nov 29
36 °FPartly sunny.2 mph93%29.95 "Hg5 mi
8:20 AM36 °FPartly sunny.2 mph93%29.95 "Hg5 mi
7:50 AM34 °FPassing clouds.2 mph100%29.92 "Hg5 mi
7:20 AM34 °FPassing clouds.5 mph93%29.92 "Hg6 mi
6:50 AM32 °FPassing clouds.3 mph93%29.92 "Hg5 mi
6:20 AM32 °FPassing clouds.1 mph93%29.92 "Hg5 mi
5:50 AM32 °FPassing clouds.No wind93%29.92 "Hg4 mi
5:20 AM30 °FPassing clouds.No wind93%29.92 "Hg4 mi
11:20 PM
Nov 28
36 °FClear.9 mph87%29.86 "Hg5 mi
10:50 PM37 °FClear.10 mph87%29.86 "Hg5 mi
10:20 PM37 °FClear.10 mph87%29.86 "Hg6 mi
9:50 PM37 °FClear.12 mph87%29.86 "Hg6 mi
9:20 PM37 °FClear.12 mph87%29.83 "Hg6 mi
8:50 PM37 °FClear.14 mph87%29.83 "Hg10 mi
8:20 PM37 °FClear.14 mph87%29.83 "Hg10 mi
7:50 PM37 °FClear.13 mph87%29.83 "Hg10 mi
7:20 PM37 °FClear.16 mph87%29.80 "Hg10 mi
6:50 PM39 °FClear.15 mph81%29.80 "Hg5 mi
6:20 PM39 °FClear.16 mph81%29.80 "Hg5 mi
5:50 PM39 °FClear.15 mph81%29.80 "Hg5 mi
5:20 PM39 °FClear.17 mph81%29.77 "Hg5 mi
4:50 PM39 °FClear.17 mph81%29.77 "Hg4 mi
4:20 PM39 °FClear.17 mph81%29.77 "Hg4 mi
3:50 PM39 °FClear.14 mph81%29.77 "Hg6 mi
3:20 PM41 °FSunny.14 mph76%29.77 "Hg10 mi
2:50 PM41 °FSunny.15 mph76%29.77 "Hg10 mi
2:20 PM41 °FSunny.16 mph81%29.77 "Hg10 mi
1:50 PM43 °FSunny.17 mph76%29.77 "Hg10 mi
1:20 PM43 °FPassing clouds.16 mph76%29.77 "HgN/A
12:50 PM43 °FSunny.16 mph76%29.77 "Hg10 mi
12:20 PM43 °FSunny.16 mph81%29.77 "Hg10 mi
11:50 AM43 °FPassing clouds.13 mph81%29.80 "HgN/A
11:20 AM43 °FScattered clouds.10 mph81%29.80 "Hg6 mi
10:50 AM43 °FScattered clouds.8 mph81%29.80 "Hg6 mi
10:20 AM41 °FScattered clouds.9 mph87%29.80 "Hg6 mi
Weather by CustomWeather, © 2014

See weather overviewHow to use our weather pages